Location: Almena City Lake
(39.8850°N, 99.6804°W)
Time: 14:27:12
(UTC+00:00)

STARLINK-1071 - Pass Details

Date: 18 February 2020
Orbit: 549 x 550 km, 53.0° (Epoch: 08 April)

Event Time Altitude Azimuth Distance (km) Brightness Sun altitude
Exits shadow 11:54:52 33° 320° (NW) 901 4.4 -18.5°
Maximum altitude 11:55:08 34° 330° (NNW) 893 4.4 -18.5°
Drops below altitude 10° 11:58:49 10° 36° (NE) 1,775 6.7 -17.8°
Sets 12:01:12 0° 46° (NE) 2,667 7.8 -17.3°
